Jamestown, NY

6:25 PM EST on December 04, 2016 (GMT -0500)
Chautauqua County-Jamestown

Weather History for KJHW - October, 2012

Change the Weather History Date:

Thursday, October 18, 2012

  Actual Average Record
Temperature  
Mean Temperature 54 °F -  
Max Temperature 64 °F 57 °F 74 °F (1980)
Min Temperature 44 °F 35 °F 20 °F (1985)
Degree Days  
Heating Degree Days 11    
Growing Degree Days 4 (Base 50)    
Moisture  
Dew Point 42 °F    
Average Humidity 71    
Maximum Humidity 93    
Minimum Humidity 49    
Precipitation  
Precipitation 0.68 in - - ()
Sea Level Pressure  
Sea Level Pressure 29.75 in    
Wind  
Wind Speed 11 mph (South)    
Max Wind Speed 17 mph    
Max Gust Speed 34 mph    
Visibility 10 miles    
Events      
Averages and records for this station are not official NWS values.
T = Trace of Precipitation, MM = Missing Value Source: NWS Daily Summary

Daily Weather History Graph

Daily Weather History Graph

Search for Another Location

Airport or City:

Trip Planner

Search our weather history database for the weather conditions in past years. The results will help you decide how hot, cold, wet, or windy it might be!

Date:

Astronomy

Oct. 18, 2012 Rise Set
Actual Time 7:33 AM EDT 6:29 PM EDT
Civil Twilight 7:05 AM EDT 6:58 PM EDT
Nautical Twilight 6:32 AM EDT 7:30 PM EDT
Astronomical Twilight 6:00 AM EDT 8:02 PM EDT
Moon 11:17 AM EDT (10/18) 8:58 PM EDT (10/18)
Length of Visible Light 11h 52m
Length of Day
10h 56m
Waxing Crescent, 14% of the Moon is Illuminated
Oct 18
Waxing Crescent
Oct 21
First Quarter
Oct 29
Full
Nov 6
Last Quarter
Nov 13
New

Hourly Weather History & Observations

Time (EDT) Temp. Windchill Dew Point Humidity Pressure Visibility Wind Dir Wind Speed Gust Speed Precip Events Conditions
12:15 AM 53.6 °F - 37.4 °F 54% 29.81 in 10.0 mi SSE 8.1 mph 17.3 mph N/A   Clear
12:35 AM 53.6 °F - 37.4 °F 54% 29.80 in 10.0 mi SSE 10.4 mph - N/A   Clear
12:55 AM 51.8 °F - 37.4 °F 58% 29.80 in 10.0 mi SSE 11.5 mph - N/A   Clear
1:15 AM 51.8 °F - 37.4 °F 58% 29.80 in 10.0 mi SSE 12.7 mph 17.3 mph N/A   Clear
1:35 AM 51.8 °F - 37.4 °F 58% 29.78 in 10.0 mi SSE 13.8 mph 19.6 mph N/A   Clear
1:55 AM 51.8 °F - 37.4 °F 58% 29.77 in 10.0 mi SSE 11.5 mph - N/A   Clear
2:15 AM 51.8 °F - 37.4 °F 58% 29.78 in 10.0 mi SSE 8.1 mph - N/A   Clear
2:35 AM 51.8 °F - 39.2 °F 62% 29.78 in 10.0 mi South 9.2 mph - N/A   Clear
2:55 AM 51.8 °F - 39.2 °F 62% 29.78 in 10.0 mi South 10.4 mph - N/A   Clear
3:15 AM 51.8 °F - 39.2 °F 62% 29.77 in 10.0 mi SSE 12.7 mph - N/A   Clear
3:35 AM 51.8 °F - 39.2 °F 62% 29.76 in 10.0 mi SSE 10.4 mph 18.4 mph N/A   Clear
3:55 AM 50.0 °F - 39.2 °F 66% 29.76 in 10.0 mi SSE 11.5 mph - N/A   Clear
4:15 AM 50.0 °F - 39.2 °F 66% 29.75 in 10.0 mi South 10.4 mph - N/A   Clear
4:35 AM 50.0 °F - 39.2 °F 66% 29.75 in 10.0 mi South 10.4 mph - N/A   Clear
4:55 AM 50.0 °F - 39.2 °F 66% 29.75 in 10.0 mi South 10.4 mph - N/A   Clear
5:15 AM 50.0 °F - 41.0 °F 71% 29.75 in 10.0 mi South 9.2 mph - N/A   Clear
5:35 AM 50.0 °F - 41.0 °F 71% 29.75 in 10.0 mi South 11.5 mph 16.1 mph N/A   Clear
5:55 AM 50.0 °F - 41.0 °F 71% 29.74 in 10.0 mi South 11.5 mph - N/A   Clear
6:15 AM 50.0 °F - 42.8 °F 76% 29.74 in 10.0 mi South 11.5 mph 18.4 mph N/A   Clear
6:35 AM 50.0 °F - 42.8 °F 76% 29.74 in 10.0 mi SSE 12.7 mph 17.3 mph N/A   Clear
6:55 AM 48.2 °F - 42.8 °F 82% 29.74 in 10.0 mi South 10.4 mph - N/A   Clear
7:35 AM 48.2 °F - 42.8 °F 82% 29.72 in 10.0 mi SSE 11.5 mph 19.6 mph N/A   Clear
7:55 AM 48.2 °F - 42.8 °F 82% 29.72 in 10.0 mi SSE 13.8 mph 20.7 mph N/A   Clear
8:15 AM 50.0 °F - 42.8 °F 76% 29.73 in 10.0 mi SSE 13.8 mph 20.7 mph N/A   Clear
8:35 AM 51.8 °F - 42.8 °F 71% 29.73 in 10.0 mi SSE 12.7 mph 20.7 mph N/A   Clear
8:55 AM 51.8 °F - 42.8 °F 71% 29.73 in 10.0 mi South 13.8 mph 20.7 mph N/A   Clear
9:15 AM 51.8 °F - 42.8 °F 71% 29.73 in 10.0 mi SSE 17.3 mph 21.9 mph N/A   Clear
9:35 AM 53.6 °F - 42.8 °F 67% 29.73 in 10.0 mi SSE 16.1 mph 21.9 mph N/A   Clear
9:55 AM 53.6 °F - 42.8 °F 67% 29.72 in 10.0 mi SSE 11.5 mph - N/A   Clear
10:15 AM 53.6 °F - 42.8 °F 67% 29.72 in 10.0 mi SSE 13.8 mph 20.7 mph N/A   Clear
10:35 AM 53.6 °F - 42.8 °F 67% 29.70 in 10.0 mi SSE 11.5 mph - N/A   Clear
10:55 AM 55.4 °F - 42.8 °F 63% 29.70 in 10.0 mi SSE 15.0 mph 23.0 mph N/A   Clear
11:15 AM 55.4 °F - 42.8 °F 63% 29.70 in 10.0 mi South 10.4 mph 16.1 mph N/A   Clear
11:35 AM 57.2 °F - 42.8 °F 59% 29.69 in 10.0 mi SSE 12.7 mph 21.9 mph N/A   Clear
11:55 AM 57.2 °F - 42.8 °F 59% 29.69 in 10.0 mi South 12.7 mph 20.7 mph N/A   Clear
12:15 PM 59.0 °F - 42.8 °F 55% 29.68 in 10.0 mi SSE 16.1 mph 21.9 mph N/A   Clear
12:35 PM 60.8 °F - 42.8 °F 52% 29.69 in 10.0 mi South 15.0 mph 24.2 mph N/A   Partly Cloudy
12:55 PM 62.6 °F - 44.6 °F 52% 29.69 in 10.0 mi South 16.1 mph 24.2 mph N/A   Partly Cloudy
1:15 PM 62.6 °F - 44.6 °F 52% 29.68 in 10.0 mi SSE 13.8 mph 24.2 mph N/A   Mostly Cloudy
1:35 PM 62.6 °F - 44.6 °F 52% 29.68 in 10.0 mi South 12.7 mph 20.7 mph N/A   Overcast
1:55 PM 64.4 °F - 44.6 °F 49% 29.67 in 10.0 mi South 13.8 mph 21.9 mph N/A   Mostly Cloudy
2:15 PM 62.6 °F - 44.6 °F 52% 29.68 in 10.0 mi South 11.5 mph 23.0 mph N/A   Overcast
2:35 PM 64.4 °F - 44.6 °F 49% 29.68 in 10.0 mi South 15.0 mph 20.7 mph N/A   Overcast
2:55 PM 64.4 °F - 44.6 °F 49% 29.68 in 10.0 mi South 15.0 mph 19.6 mph N/A   Overcast
3:15 PM 64.4 °F - 44.6 °F 49% 29.68 in 10.0 mi South 15.0 mph 20.7 mph N/A   Overcast
3:35 PM 64.4 °F - 44.6 °F 49% 29.68 in 10.0 mi South 13.8 mph 25.3 mph N/A   Overcast
3:55 PM 64.4 °F - 44.6 °F 49% 29.68 in 10.0 mi SSE 15.0 mph - N/A   Overcast
4:15 PM 53.6 °F - 44.6 °F 72% 29.74 in 8.0 mi WSW 16.1 mph 34.5 mph N/A   Overcast
4:35 PM 48.2 °F - 42.8 °F 82% 29.73 in 8.0 mi WSW 16.1 mph - N/A   Overcast
4:55 PM 48.2 °F - 42.8 °F 82% 29.74 in 7.0 mi WSW 12.7 mph - N/A   Overcast
5:15 PM 48.2 °F - 42.8 °F 82% 29.74 in 10.0 mi SW 3.5 mph - N/A   Overcast
5:35 PM 48.2 °F - 44.6 °F 87% 29.74 in 7.0 mi Calm Calm - N/A   Mostly Cloudy
5:55 PM 48.2 °F - 44.6 °F 87% 29.75 in 8.0 mi SSW 3.5 mph - 0.03 in   Overcast
6:15 PM 46.4 °F 42.9 °F 44.6 °F 93% 29.78 in 8.0 mi SSW 6.9 mph - 0.02 in   Overcast
6:35 PM 46.4 °F 43.5 °F 44.6 °F 93% 29.79 in 10.0 mi South 5.8 mph - 0.12 in   Overcast
6:55 PM 46.4 °F 43.5 °F 44.6 °F 93% 29.82 in 10.0 mi South 5.8 mph - 0.20 in   Mostly Cloudy
7:35 PM 46.4 °F 45.2 °F 44.6 °F 93% 29.82 in 10.0 mi SSW 3.5 mph - 0.17 in   Overcast
7:55 PM 46.4 °F - 44.6 °F 93% 29.82 in 10.0 mi Calm Calm - 0.20 in   Overcast
8:55 PM 46.4 °F 43.5 °F 42.8 °F 87% 29.83 in 8.0 mi South 5.8 mph - 0.15 in   Overcast
9:15 PM 44.6 °F 42.2 °F 42.8 °F 93% 29.82 in 10.0 mi South 4.6 mph - 0.04 in   Overcast
9:35 PM 44.6 °F 41.4 °F 42.8 °F 93% 29.84 in 8.0 mi South 5.8 mph - 0.06 in   Overcast
9:55 PM 44.6 °F 40.7 °F 42.8 °F 93% 29.84 in 5.0 mi SE 6.9 mph - 0.09 in   Mostly Cloudy
10:15 PM 44.6 °F 38.4 °F 42.8 °F 93% 29.81 in 2.5 mi ESE 12.7 mph - 0.01 in   Overcast
10:35 PM 44.6 °F 41.4 °F 42.8 °F 93% 29.82 in 10.0 mi SE 5.8 mph - 0.01 in   Overcast
10:55 PM 44.6 °F 39.2 °F 42.8 °F 93% 29.79 in 10.0 mi SE 10.4 mph - 0.01 in   Overcast
11:15 PM 44.6 °F 43.1 °F 42.8 °F 93% 29.81 in 10.0 mi SE 3.5 mph - N/A   Overcast
11:35 PM 44.6 °F 43.1 °F 41.0 °F 87% 29.81 in 10.0 mi South 3.5 mph - N/A   Scattered Clouds
11:55 PM 44.6 °F 42.2 °F 39.2 °F 81% 29.82 in 10.0 mi South 4.6 mph - N/A   Clear